CW2884 Weather Reports


Display with metric or nautical units.
time (UTC)temp
F
wind
direction
speed
MPH
gust
MPH
rain 1hr
in
rain 24hr
in
rain mn
in
humidity
%
barometer
mb
20260903190522 89 0.0 0.0 0.00 0.00 0.00 71 1013.6
20260903190053 89 0.0 0.0 0.00 0.00 0.00 70 1013.6
20260903185058 89 0.0 0.0 0.00 0.00 0.00 73 1013.8
20260903184529 89 0.0 0.0 0.00 0.00 0.00 73 1013.8
20260903183558 88 0.0 0.0 0.00 0.00 0.00 75 1013.7
20260903183025 88 0.0 0.0 0.00 0.00 0.00 75 1013.7
20260903182055 88 0.0 0.0 0.00 0.00 0.00 73 1013.8
20260903181529 88 0.0 0.0 0.00 0.00 0.00 76 1013.8
20260903181515 87 0.0 0.0 0.00 0.00 0.00 76 1013.7
20260903180538 88 0.0 0.0 0.00 0.00 0.00 75 1014.0
20260903180034 88 0.0 0.0 0.00 0.00 0.00 75 1014.1
20260903180003 87 0.0 0.0 0.00 0.00 0.00 75 1014.0
20260903175032 88 0.0 0.0 0.00 0.00 0.00 75 1014.2
20260903174539 87 0.0 0.0 0.00 0.00 0.00 74 1014.2
20260903174527 88 0.0 0.0 0.00 0.00 0.00 74 1014.3
20260903173537 88 0.0 0.0 0.00 0.00 0.00 76 1014.5
20260903173031 88 0.0 0.0 0.00 0.00 0.00 77 1014.6
20260903173007 87 0.0 0.0 0.00 0.00 0.00 77 1014.4
20260903172037 87 0.0 0.0 0.00 0.00 0.00 77 1014.7
20260903171506 87 0.0 0.0 0.00 0.00 0.00 78 1014.7
20260903170531 87 0.0 0.0 0.00 0.00 0.00 80 1014.8
20260903170056 86 0.0 0.0 0.00 0.00 0.00 81 1014.7
20260903165023 86 0.0 0.0 0.00 0.00 0.00 79 1014.9
20260903164529 86 0.0 0.0 0.00 0.00 0.00 79 1014.9
20260903164516 86 0.0 0.0 0.00 0.00 0.00 80 1015.0
20260903163520 86 0.0 0.0 0.00 0.00 0.00 80 1015.1
20260903163052 85 0.0 0.0 0.00 0.00 0.00 81 1015.0
20260903163035 86 0.0 0.0 0.00 0.00 0.00 81 1015.1
20260903162020 85 0.0 0.0 0.00 0.00 0.00 81 1015.2
20260903161534 85 0.0 0.0 0.00 0.00 0.00 82 1015.2
20260903161509 85 0.0 0.0 0.00 0.00 0.00 82 1015.0
20260903160112 84 0.0 0.0 0.00 0.00 0.00 85 1015.1
20260903160019 84 0.0 0.0 0.00 0.00 0.00 84 1015.2
20260903155035 84 0.0 0.0 0.00 0.00 0.00 85 1015.4
20260903154529 84 0.0 0.0 0.00 0.00 0.00 86 1015.5
20260903154513 83 0.0 0.0 0.00 0.00 0.00 86 1015.4
20260903153558 83 0.0 0.0 0.00 0.00 0.00 87 1015.5
20260903153050 83 0.0 0.0 0.00 0.00 0.00 87 1015.4
20260903153003 83 0.0 0.0 0.00 0.00 0.00 87 1015.3
20260903152036 83 0.0 0.0 0.00 0.00 0.00 88 1015.5
20260903151656 82 0.0 0.0 0.00 0.00 0.00 88 1015.3
20260903150526 82 0.0 0.0 0.00 0.00 0.00 91 1015.4
20260903150030 81 0.0 0.0 0.00 0.00 0.00 92 1015.5
20260903150019 81 0.0 0.0 0.00 0.00 0.00 92 1015.4
20260903145026 81 0.0 0.0 0.00 0.00 0.00 93 1015.6
20260903144544 80 0.0 0.0 0.00 0.00 0.00 93 1015.4
20260903144518 81 0.0 0.0 0.00 0.00 0.00 93 1015.6
20260903143525 80 0.0 0.0 0.00 0.00 0.00 94 1015.4
20260903143118 79 0.0 0.0 0.00 0.00 0.00 94 1015.3
20260903143019 80 0.0 0.0 0.00 0.00 0.00 94 1015.4
20260903142029 80 0.0 0.0 0.00 0.00 0.00 94 1015.6
20260903141557 79 0.0 0.0 0.00 0.00 0.00 94 1015.5
20260903141523 80 0.0 0.0 0.00 0.00 0.00 94 1015.7
20260903140550 79 0.0 0.0 0.00 0.00 0.00 94 1015.6
20260903140113 79 0.0 0.0 0.00 0.00 0.00 94 1015.4
20260903140020 79 0.0 0.0 0.00 0.00 0.00 94 1015.5
20260903134609 79 0.0 0.0 0.00 0.00 0.00 95 1015.3
20260903134548 79 0.0 0.0 0.00 0.00 0.00 95 1015.5
20260903133535 79 0.0 0.0 0.00 0.00 0.00 95 1015.4
20260903133107 78 0.0 0.0 0.00 0.00 0.00 95 1015.3
20260903133023 79 0.0 0.0 0.00 0.00 0.00 95 1015.4
20260903132034 79 0.0 0.0 0.00 0.00 0.00 95 1015.4
20260903131521 78 0.0 0.0 0.00 0.00 0.00 95 1015.2
20260903130524 79 0.0 0.0 0.00 0.00 0.00 95 1015.2
20260903130021 79 0.0 0.0 0.00 0.00 0.00 95 1015.3
20260903130007 78 0.0 0.0 0.00 0.00 0.00 95 1015.1
20260903125021 79 0.0 0.0 0.00 0.00 0.00 95 1015.3
20260903124553 78 0.0 0.0 0.00 0.00 0.00 95 1015.3
20260903123532 78 0.0 0.0 0.00 0.00 0.00 95 1015.4
20260903123040 78 0.0 0.0 0.00 0.00 0.00 95 1015.2
20260903123026 78 0.0 0.0 0.00 0.00 0.00 95 1015.4
20260903122034 78 0.0 0.0 0.00 0.00 0.00 95 1015.1
20260903121613 78 0.0 0.0 0.00 0.00 0.00 95 1015.0
20260903121528 78 0.0 0.0 0.00 0.00 0.00 95 1015.1
20260903120537 78 0.0 0.0 0.00 0.00 0.00 95 1015.0
20260903120030 78 0.0 0.0 0.00 0.00 0.00 95 1014.9
20260903115030 78 0.0 0.0 0.00 0.00 0.00 95 1014.8
20260903114612 78 0.0 0.0 0.00 0.00 0.00 95 1014.6
20260903114518 78 0.0 0.0 0.00 0.00 0.00 95 1014.7
20260903113528 78 0.0 0.0 0.00 0.00 0.00 95 1014.5
20260903113052 78 0.0 0.0 0.00 0.00 0.00 95 1014.3
20260903113022 78 0.0 0.0 0.00 0.00 0.00 95 1014.4
20260903112046 78 0.0 0.0 0.00 0.00 0.00 95 1014.2
20260903111558 78 0.0 0.0 0.00 0.00 0.00 95 1014.1
20260903111521 78 0.0 0.0 0.00 0.00 0.00 95 1014.2
20260903110551 78 0.0 0.0 0.00 0.00 0.00 95 1014.2
20260903110112 78 0.0 0.0 0.00 0.00 0.00 95 1014.0
20260903110025 78 0.0 0.0 0.00 0.00 0.00 95 1014.1
20260903105025 78 0.0 0.0 0.00 0.00 0.00 95 1014.0
20260903104517 78 0.0 0.0 0.00 0.00 0.00 95 1014.0
20260903104506 78 0.0 0.0 0.00 0.00 0.00 95 1013.8
20260903103525 78 0.0 0.0 0.00 0.00 0.00 95 1013.9
20260903103105 78 0.0 0.0 0.00 0.00 0.00 94 1013.6
20260903103021 78 0.0 0.0 0.00 0.00 0.00 95 1013.8
20260903102029 78 0.0 0.0 0.00 0.00 0.00 94 1013.8
20260903101543 78 0.0 0.0 0.00 0.00 0.00 94 1013.8
20260903101532 78 0.0 0.0 0.00 0.00 0.00 94 1013.6
20260903100520 78 0.0 0.0 0.00 0.00 0.00 94 1013.7
20260903100035 78 0.0 0.0 0.00 0.00 0.00 94 1013.8
20260903100002 78 0.0 0.0 0.00 0.00 0.00 94 1013.6
20260903095033 78 0.0 0.0 0.00 0.00 0.00 94 1013.7
20260903094542 78 0.0 0.0 0.00 0.00 0.00 94 1013.5
20260903094525 78 0.0 0.0 0.00 0.00 0.00 94 1013.7
20260903093101 78 0.0 0.0 0.00 0.00 0.00 94 1013.4
20260903093032 78 0.0 0.0 0.00 0.00 0.00 94 1013.5
20260903092041 78 0.0 0.0 0.00 0.00 0.00 94 1013.5
20260903091611 78 0.0 0.0 0.00 0.00 0.00 94 1013.4
20260903091534 78 0.0 0.0 0.00 0.00 0.00 94 1013.5
20260903090542 78 0.0 0.0 0.00 0.00 0.00 94 1013.4
20260903090035 78 0.0 0.0 0.00 0.00 0.00 94 1013.3
20260903090028 78 0.0 0.0 0.00 0.00 0.00 94 1013.2
20260903085034 79 0.0 0.0 0.00 0.00 0.00 94 1013.2
20260903084657 78 0.0 0.0 0.00 0.00 0.00 94 1013.1
20260903083549 79 0.0 0.0 0.00 0.00 0.00 94 1013.3
20260903083019 79 0.0 0.0 0.00 0.00 0.00 94 1013.3
20260903082026 79 0.0 0.0 0.00 0.00 0.00 94 1013.4
20260903081515 79 0.0 0.0 0.00 0.00 0.00 94 1013.3
20260903080544 79 0.0 0.0 0.00 0.00 0.00 94 1013.4
20260903080031 79 0.0 0.0 0.00 0.00 0.00 94 1013.4
20260903075042 79 0.0 0.0 0.00 0.00 0.00 94 1013.6
20260903074529 79 0.0 0.0 0.00 0.00 0.00 93 1013.7
20260903073536 79 0.0 0.0 0.00 0.00 0.00 94 1013.7
20260903073023 79 0.0 0.0 0.00 0.00 0.00 94 1013.8
20260903071525 79 0.0 0.0 0.00 0.00 0.00 93 1013.8
20260903070518 79 0.0 0.0 0.00 0.00 0.00 93 1013.9
20260903065042 79 0.0 0.0 0.00 0.00 0.00 93 1014.1
20260903064532 79 0.0 0.0 0.00 0.00 0.00 93 1014.1
20260903063019 79 0.0 0.0 0.00 0.00 0.00 93 1014.1
20260903062029 79 0.0 0.0 0.00 0.00 0.00 93 1014.0
20260903061538 79 0.0 0.0 0.00 0.00 0.00 93 1014.1
20260903060523 79 0.0 0.0 0.00 0.00 0.00 93 1014.2
20260903060032 79 0.0 0.0 0.00 0.00 0.00 93 1014.3
20260903055057 79 0.0 0.0 0.00 0.00 0.00 93 1014.5
20260903054546 79 0.0 0.0 0.00 0.00 0.00 93 1014.5
20260903053034 79 0.0 0.0 0.00 0.00 0.00 93 1014.7
20260903052026 79 0.0 0.0 0.00 0.00 0.00 93 1014.8
20260903051534 80 0.0 0.0 0.00 0.00 0.00 93 1015.0
20260903050519 80 0.0 0.0 0.00 0.00 0.00 93 1015.0
20260903050027 80 0.0 0.0 0.00 0.00 0.00 93 1015.1
20260903045032 80 0.0 0.0 0.00 0.00 0.00 93 1015.0
20260903044601 79 0.0 0.0 0.00 0.00 0.00 93 1014.9
20260903044520 80 0.0 0.0 0.00 0.00 0.00 93 1015.1
20260903043534 80 0.0 0.0 0.00 0.00 0.00 93 1014.9
20260903043010 79 0.0 0.0 0.00 0.00 0.00 93 1014.9
20260903042032 80 0.0 0.0 0.00 0.00 0.00 93 1015.1
20260903041640 79 0.0 0.0 0.00 0.00 0.00 93 1015.0
20260903041546 80 0.0 0.0 0.00 0.00 0.00 93 1015.0
20260903040555 80 0.0 0.0 0.00 0.00 0.00 92 1015.4
20260903040028 80 0.0 0.0 0.00 0.00 0.00 92 1015.4
20260903040013 79 0.0 0.0 0.00 0.00 0.00 92 1015.3
20260903035040 80 0.0 0.0 0.00 0.00 0.00 92 1015.3
20260903034615 79 0.0 0.0 0.00 0.00 0.00 92 1015.2
20260903034528 80 0.0 0.0 0.00 0.00 0.00 92 1015.3
20260903033519 80 0.0 0.0 0.00 0.00 0.00 92 1015.4
20260903033102 79 0.0 0.0 0.00 0.00 0.00 92 1015.2
20260903033029 80 0.0 0.0 0.00 0.00 0.00 92 1015.4
20260903031633 79 0.0 0.0 0.00 0.00 0.00 92 1015.1
20260903031522 80 0.0 0.0 0.00 0.00 0.00 92 1015.3
20260903030548 80 0.0 0.0 0.00 0.00 0.00 92 1015.4
20260903030110 80 0.0 0.0 0.00 0.00 0.00 92 1015.3
20260903030022 80 0.0 0.0 0.00 0.00 0.00 92 1015.5
20260903025039 80 0.0 0.0 0.00 0.00 0.00 92 1015.3
20260903024610 80 0.0 0.0 0.00 0.00 0.00 92 1015.2
20260903024540 80 0.0 0.0 0.00 0.00 0.00 92 1015.4
20260903023527 80 0.0 0.0 0.00 0.00 0.00 92 1015.4
20260903023021 80 0.0 0.0 0.00 0.00 0.00 92 1015.5
20260903023009 80 0.0 0.0 0.00 0.00 0.00 92 1015.3
20260903022028 81 0.0 0.0 0.00 0.00 0.00 91 1015.4
20260903021607 80 0.0 0.0 0.00 0.00 0.00 91 1015.3
20260903021521 81 0.0 0.0 0.00 0.00 0.00 91 1015.4
20260903020551 81 0.0 0.0 0.00 0.00 0.00 91 1015.6
20260903020105 80 0.0 0.0 0.00 0.00 0.00 91 1015.4
20260903020041 81 0.0 0.0 0.00 0.00 0.00 91 1015.5
20260903015033 81 0.0 0.0 0.00 0.00 0.00 91 1015.6
20260903014545 81 0.0 0.0 0.00 0.00 0.00 91 1015.6
20260903014515 80 0.0 0.0 0.00 0.00 0.00 91 1015.5
20260903013528 81 0.0 0.0 0.00 0.00 0.00 90 1015.4
20260903013051 80 0.0 0.0 0.00 0.00 0.00 90 1015.2
20260903013017 81 0.0 0.0 0.00 0.00 0.00 90 1015.3
20260903012059 81 0.0 0.0 0.00 0.00 0.00 90 1015.2
20260903011524 81 0.0 0.0 0.00 0.00 0.00 90 1015.1
20260903010532 81 0.0 327.0 0.00 0.00 0.00 89 1014.5
20260903010015 81 0.0 0.0 0.00 0.00 0.00 89 1014.4
20260903005024 81 0.0 0.0 0.00 0.00 0.00 89 1014.3
20260903004550 81 0.0 0.0 0.00 0.00 0.00 89 1014.4
20260903003032 82 0.0 0.0 0.00 0.00 0.00 89 1014.4
20260903002018 82 0.0 0.0 0.00 0.00 0.00 88 1014.6
20260903001527 82 0.0 0.0 0.00 0.00 0.00 88 1014.5
20260903000033 82 0.0 0.0 0.00 0.00 0.00 88 1014.5
20260902235037 82 0.0 0.0 0.00 0.00 0.00 87 1014.4
20260902234525 82 0.0 0.0 0.00 0.00 0.00 87 1014.5
20260902233552 82 0.0 0.0 0.00 0.00 0.00 86 1014.7
20260902233020 82 0.0 0.0 0.00 0.00 0.00 85 1014.7
20260902232033 82 0.0 0.0 0.00 0.00 0.00 85 1014.5
20260902231527 82 0.0 0.0 0.00 0.00 0.00 84 1014.3
20260902231504 82 0.0 0.0 0.00 0.00 0.00 84 1014.2
20260902230527 82 0.0 0.0 0.00 0.00 0.00 84 1014.4
20260902230051 82 0.0 0.0 0.00 0.00 0.00 84 1014.3
20260902230037 82 0.0 0.0 0.00 0.00 0.00 84 1014.4
20260902225032 83 0.0 0.0 0.00 0.00 0.00 83 1014.8
20260902224545 82 0.0 0.0 0.00 0.00 0.00 83 1014.5
20260902224527 83 0.0 0.0 0.00 0.00 0.00 83 1014.7
20260902223528 83 0.0 0.0 0.00 0.00 0.00 83 1014.7
20260902223005 83 0.0 0.0 0.00 0.00 0.00 83 1014.4
20260902222018 83 0.0 0.0 0.00 0.00 0.00 85 1014.0
20260902221558 83 0.0 0.0 0.00 0.00 0.00 84 1013.7
20260902221531 84 0.0 0.0 0.00 0.00 0.00 85 1013.9
20260902220526 84 0.0 0.0 0.00 0.00 0.00 86 1014.0
20260902220100 83 0.0 0.0 0.00 0.00 0.00 85 1014.1
20260902220042 84 0.0 0.0 0.00 0.00 0.00 85 1014.2
20260902214621 84 0.0 0.0 0.00 0.00 0.00 84 1013.5
20260902214547 84 0.0 0.0 0.00 0.00 0.00 84 1013.5
20260902213522 85 0.0 0.0 0.00 0.00 0.00 84 1013.4
20260902213032 84 0.0 0.0 0.00 0.00 0.00 83 1013.1
20260902212018 85 0.0 0.0 0.00 0.00 0.00 82 1013.3
20260902211606 85 0.0 0.0 0.00 0.00 0.00 81 1013.2
20260902211531 85 0.0 0.0 0.00 0.00 0.00 82 1013.4
20260902210530 86 0.0 0.0 0.00 0.00 0.00 79 1013.8
20260902210024 86 0.0 0.0 0.00 0.00 0.00 78 1013.7
20260902210008 86 0.0 0.0 0.00 0.00 0.00 78 1013.6
20260902205042 87 0.0 0.0 0.00 0.00 0.00 75 1013.5
20260902204603 88 0.0 0.0 0.00 0.00 0.00 75 1013.3
20260902204531 88 0.0 0.0 0.00 0.00 0.00 75 1013.5
20260902203536 90 0.0 0.0 0.00 0.00 0.00 76 1013.6
20260902203028 90 0.0 0.0 0.00 0.00 0.00 75 1013.6
20260902203020 90 0.0 0.0 0.00 0.00 0.00 75 1013.4
20260902202054 91 0.0 0.0 0.00 0.00 0.00 73 1013.5
20260902201552 91 0.0 0.0 0.00 0.00 0.00 72 1013.3
20260902201529 91 0.0 0.0 0.00 0.00 0.00 72 1013.5
20260902200538 91 0.0 0.0 0.00 0.00 0.00 68 1013.4
20260902200105 90 0.0 0.0 0.00 0.00 0.00 68 1013.3
20260902200030 91 0.0 0.0 0.00 0.00 0.00 68 1013.5
20260902195028 91 0.0 0.0 0.00 0.00 0.00 66 1013.6
20260902194519 91 0.0 0.0 0.00 0.00 0.00 67 1013.7
20260902194502 90 0.0 0.0 0.00 0.00 0.00 67 1013.5
20260902193519 90 0.0 0.0 0.00 0.00 0.00 67 1013.9
20260902193046 90 0.0 0.0 0.00 0.00 0.00 68 1013.7
20260902193032 90 0.0 0.0 0.00 0.00 0.00 68 1013.9
20260902192036 90 0.0 0.0 0.00 0.00 0.00 69 1014.1
20260902191614 89 0.0 0.0 0.00 0.00 0.00 69 1014.0
20260902191544 90 0.0 0.0 0.00 0.00 0.00 69 1014.2